Skip Page Navigation
NASA JPL Caltech
NASA Logo - Jet Propulsion Laboratory + View the NASA Portal
+ Center for Near-Earth Object Studies
JPL Home Earth Solar System Stars & Galaxies Technology
JPL Solar System Dynamics
BODIES ORBITS EPHEMERIDES TOOLS PHYSICAL DATA DISCOVERY FAQ SITE MAP
JPL Small-Body Database Browser
Search: [ help ]  
160999 (2002 CS296)
Classification: Main-belt Asteroid          SPK-ID: 2160999
Ephemeris | Orbit Diagram | Orbital Elements | Mission Design | Physical Parameters | Discovery Circumstances | Close-Approach Data ]

[ hide orbit diagram ]

For accurate long-term ephemerides, please instead use our Horizons system.This orbit viewer was implemented using two-body methods, and hence should not be used for determining accurate long-term trajectories (over several years or decades) or planetary encounter circumstances.


[ revert to old Java-based viewer ]

Orbital Elements at Epoch 2459000.5 (2020-May-31.0) TDB
Reference: JPL 13 (heliocentric ecliptic J2000)
 Element Value Uncertainty (1-sigma)   Units 
e .2049502858788848 4.6556e-08  
a 3.037672931737116 2.6735e-08 au
q 2.415100995971044 1.4272e-07 au
i 2.212492271776231 5.472e-06 deg
node 133.4137881699845 0.00015619 deg
peri 307.5324994768321 0.00015707 deg
M 226.5138659336683 1.4463e-05 deg
tp 2459717.540355131011
(2022-May-18.04035513)
7.8561e-05 TDB
period 1933.792821649118
5.29
2.553e-05
6.99e-08
d
yr
n .1861626519499621 2.4577e-09 deg/d
Q 3.660244867503188 3.2215e-08 au
  Orbit Determination Parameters
   # obs. used (total)      261  
   data-arc span      6756 days (18.50 yr)  
   first obs. used      2000-10-31  
   last obs. used      2019-05-01  
   planetary ephem.      DE431  
   SB-pert. ephem.      SB431-N16  
   condition code      0  
   norm. resid. RMS      .571  
   source      ORB  
   producer      Otto Matic  
   solution date      2020-Feb-24 13:28:48  

Additional Information
 Earth MOID = 1.43171 au 
 Jupiter MOID = 1.59845 au 
 T_jup = 3.208 
[ show covariance matrix ]

Ephemeris | Orbit Diagram | Orbital Elements | Mission Design | Physical Parameters | Discovery Circumstances | Close-Approach Data ]

Physical Parameter Table
Parameter Symbol Value Units Sigma Reference Notes
absolute magnitude H 16.2   n/a MPO436811  

160999 (2002 CS296)          Discovered 2002-Feb-10 by LINEAR at Socorro
Reference: 20070828/Numbers.arcLast Updated: 2007-08-30

[ show close-approach data ]
Alternate Designations
 2002 CS296 = 2002 EH141 
Ephemeris | Orbit Diagram | Orbital Elements | Mission Design | Physical Parameters | Discovery Circumstances | Close-Approach Data ]
ABOUT SSD CREDITS/AWARDS PRIVACY/COPYRIGHT GLOSSARY LINKS
FirstGov 2020-Oct-28 18:58 UT
(server date/time)  
NASA Home Page
Site Manager:   Ryan S. Park
Webmaster  Alan B. Chamberlin